Chicago Executive, IL

3:02 AM CDT on May 25, 2017 (GMT -0500)
Chicago Executive

Weather History for KPWK - March, 2014

Change the Weather History Date:

Monday, March 31, 2014

  Actual Average Record
Temperature  
Mean Temperature 56 °F 42 °F  
Max Temperature 68 °F 52 °F 78 °F (2010)
Min Temperature 44 °F 33 °F 22 °F (2011)
Degree Days  
Heating Degree Days 9 23  
Month to date heating degree days 1047 852  
Since 1 July heating degree days 6406 5591  
Cooling Degree Days 0 0  
Month to date cooling degree days 0 0  
Year to date cooling degree days 0 0  
Growing Degree Days 6 (Base 50)    
Moisture  
Dew Point 31 °F    
Average Humidity 42    
Maximum Humidity 63    
Minimum Humidity 22    
Precipitation  
Precipitation T in 0.08 in 0.39 in (2008)
Month to date precipitation 0.55 2.25  
Year to date precipitation 2.68 4.83  
Sea Level Pressure  
Sea Level Pressure 29.91 in    
Wind  
Wind Speed 19 mph (South)    
Max Wind Speed 32 mph    
Max Gust Speed 40 mph    
Visibility 10 miles    
Events      
T = Trace of Precipitation, MM = Missing Value Source: NWS Daily Summary

Daily Weather History Graph

Daily Weather History Graph

Search for Another Location

Airport or City:

Trip Planner

Search our weather history database for the weather conditions in past years. The results will help you decide how hot, cold, wet, or windy it might be!

Date:

Astronomy

Mar. 31, 2014 Rise Set
Actual Time 6:35 AM CDT 7:16 PM CDT
Civil Twilight 6:07 AM CDT 7:44 PM CDT
Nautical Twilight 5:34 AM CDT 8:17 PM CDT
Astronomical Twilight 4:59 AM CDT 8:52 PM CDT
Moon 6:58 AM CDT (3/31) 8:36 PM CDT (3/31)
Length of Visible Light 13h 36m
Length of Day
12h 40m
New Moon, 1% of the Moon is Illuminated
Mar 31
New Moon
Apr 7
First Quarter
Apr 15
Full
Apr 22
Last Quarter
Apr 29
New

Hourly Weather History & Observations

Time (CDT) Temp. Windchill Dew Point Humidity Pressure Visibility Wind Dir Wind Speed Gust Speed Precip Events Conditions
12:52 AM 45.0 °F 40.6 °F 32.0 °F 60% 30.06 in 10.0 mi South 8.1 mph - N/A   Clear
1:52 AM 45.0 °F 40.1 °F 30.9 °F 58% 30.05 in 10.0 mi South 9.2 mph - N/A   Clear
2:52 AM 46.0 °F 41.0 °F 30.9 °F 56% 30.05 in 10.0 mi South 10.4 mph - N/A   Clear
3:52 AM 46.0 °F 41.9 °F 32.0 °F 58% 30.04 in 10.0 mi South 8.1 mph - N/A   Clear
4:52 AM 46.9 °F - 32.0 °F 56% 30.06 in 10.0 mi SSW 8.1 mph - N/A   Clear
5:52 AM 45.0 °F 41.8 °F 33.1 °F 63% 30.04 in 10.0 mi SSE 5.8 mph - N/A   Partly Cloudy
6:52 AM 45.0 °F 40.1 °F 32.0 °F 60% 30.04 in 10.0 mi SSE 9.2 mph - N/A   Mostly Cloudy
7:52 AM 46.9 °F - 32.0 °F 56% 30.04 in 10.0 mi South 12.7 mph - N/A   Clear
8:52 AM 50.0 °F - 33.1 °F 52% 30.02 in 10.0 mi South 17.3 mph - N/A   Clear
9:52 AM 54.0 °F - 34.0 °F 47% 30.01 in 10.0 mi South 17.3 mph - N/A   Clear
10:52 AM 57.9 °F - 33.1 °F 39% 30.00 in 10.0 mi South 24.2 mph 27.6 mph N/A   Clear
11:52 AM 63.0 °F - 30.0 °F 29% 29.98 in 10.0 mi South 19.6 mph 33.4 mph N/A   Clear
12:52 PM 66.0 °F - 30.0 °F 26% 29.94 in 10.0 mi South 20.7 mph 34.5 mph N/A   Clear
1:52 PM 68.0 °F - 28.0 °F 22% 29.90 in 10.0 mi South 25.3 mph 34.5 mph N/A   Clear
2:52 PM 66.9 °F - 28.9 °F 24% 29.86 in 10.0 mi South 25.3 mph 39.1 mph N/A   Clear
3:52 PM 64.0 °F - 30.9 °F 29% 29.84 in 10.0 mi South 24.2 mph 33.4 mph N/A   Partly Cloudy
4:52 PM 64.0 °F - 27.0 °F 25% 29.78 in 10.0 mi SSE 27.6 mph 35.7 mph N/A   Clear
5:52 PM 64.0 °F - 28.0 °F 26% 29.78 in 10.0 mi South 23.0 mph 31.1 mph N/A   Mostly Cloudy
6:52 PM 64.0 °F - 27.0 °F 25% 29.75 in 10.0 mi SSE 24.2 mph 31.1 mph N/A   Mostly Cloudy
7:52 PM 63.0 °F - 26.1 °F 25% 29.76 in 10.0 mi South 21.9 mph 31.1 mph N/A   Overcast
8:52 PM 62.1 °F - 28.9 °F 29% 29.76 in 10.0 mi South 31.1 mph 40.3 mph 0.00 in   Overcast
9:52 PM 60.1 °F - 34.0 °F 38% 29.74 in 10.0 mi South 21.9 mph 32.2 mph 0.00 in   Overcast
10:52 PM 57.9 °F - 37.0 °F 46% 29.74 in 10.0 mi South 23.0 mph 35.7 mph 0.00 in   Mostly Cloudy
11:52 PM 55.9 °F - 37.9 °F 51% 29.72 in 10.0 mi South 17.3 mph - N/A   Partly Cloudy